Time,TemperatureF,DewpointF,PressureIn,WindDirection,WindDirectionDegrees,WindSpeedMPH,WindSpeedGustMPH,Humidity,HourlyPrecipIn,Conditions,Clouds,dailyrainin,SoftwareType,DateUTC
2013-04-15 00:02:00,31.8,26.6,29.88,SW,221,2.0,6.0,81,0.00,,,0.00,meteohub,2013-04-15 07:02:00,
2013-04-15 00:42:00,32.7,26.6,29.83,SE,124,3.0,8.0,78,0.00,,,0.00,meteohub,2013-04-15 07:42:00,
2013-04-15 00:47:00,32.7,26.6,29.84,South,177,0.0,7.0,78,0.00,,,0.00,meteohub,2013-04-15 07:47:00,
2013-04-15 00:52:00,32.9,26.8,29.84,East,94,0.0,7.0,78,0.00,,,0.00,meteohub,2013-04-15 07:52:00,
2013-04-15 00:57:00,33.1,26.6,29.84,South,169,0.0,6.0,77,0.00,,,0.00,meteohub,2013-04-15 07:57:00,
2013-04-15 01:02:00,33.1,26.6,29.84,South,183,2.0,5.0,77,0.00,,,0.00,meteohub,2013-04-15 08:02:00,
2013-04-15 01:07:00,33.3,27.1,29.83,NW,311,1.0,2.0,78,0.00,,,0.00,meteohub,2013-04-15 08:07:00,
2013-04-15 01:12:00,33.1,27.0,29.83,NNW,331,1.0,3.0,78,0.00,,,0.00,meteohub,2013-04-15 08:12:00,
2013-04-15 01:17:00,32.9,27.5,29.83,North,350,1.0,3.0,80,0.00,,,0.00,meteohub,2013-04-15 08:17:00,
2013-04-15 01:22:00,32.7,27.3,29.81,SSE,164,1.0,3.0,80,0.00,,,0.00,meteohub,2013-04-15 08:22:00,
2013-04-15 01:27:00,33.3,27.1,29.81,SSE,152,1.0,5.0,78,0.00,,,0.00,meteohub,2013-04-15 08:27:00,
2013-04-15 01:32:00,34.3,27.5,29.79,ESE,105,10.0,10.0,76,0.00,,,0.00,meteohub,2013-04-15 08:32:00,
2013-04-15 01:37:00,35.2,27.9,29.78,ESE,123,9.0,15.0,74,0.00,,,0.00,meteohub,2013-04-15 08:37:00,
2013-04-15 01:47:00,35.8,28.9,29.78,SE,128,5.0,17.0,76,0.00,,,0.00,meteohub,2013-04-15 08:47:00,
2013-04-15 01:52:00,36.0,29.1,29.78,East,86,3.0,17.0,76,0.00,,,0.00,meteohub,2013-04-15 08:52:00,
2013-04-15 01:57:00,35.8,29.3,29.78,NNE,13,3.0,11.0,77,0.00,,,0.00,meteohub,2013-04-15 08:57:00,
2013-04-15 02:02:00,35.8,29.3,29.78,SSE,158,5.0,8.0,77,0.00,,,0.00,meteohub,2013-04-15 09:02:00,
2013-04-15 02:12:00,35.8,29.3,29.77,ESE,113,4.0,8.0,77,0.00,,,0.00,meteohub,2013-04-15 09:12:00,
2013-04-15 02:17:00,35.8,29.3,29.78,NE,56,4.0,8.0,77,0.00,,,0.00,meteohub,2013-04-15 09:17:00,
2013-04-15 02:22:00,35.6,28.4,29.78,WNW,286,2.0,9.0,75,0.00,,,0.00,meteohub,2013-04-15 09:22:00,
2013-04-15 02:27:00,34.3,27.9,29.78,WNW,286,0.0,9.0,77,0.00,,,0.00,meteohub,2013-04-15 09:27:00,
2013-04-15 02:32:00,33.3,27.5,29.78,WSW,254,1.0,7.0,79,0.00,,,0.00,meteohub,2013-04-15 09:32:00,
2013-04-15 02:42:00,32.4,27.9,29.78,NW,308,3.0,5.0,83,0.00,,,0.00,meteohub,2013-04-15 09:42:00,
2013-04-15 02:52:00,31.5,27.5,29.78,West,274,3.0,7.0,85,0.00,,,0.00,meteohub,2013-04-15 09:52:00,
2013-04-15 03:02:00,31.3,27.5,29.78,NW,317,0.0,5.0,86,0.00,,,0.00,meteohub,2013-04-15 10:02:00,
2013-04-15 03:12:00,31.3,28.2,29.78,North,5,2.0,4.0,88,0.00,,,0.00,meteohub,2013-04-15 10:12:00,
2013-04-15 03:22:00,31.5,27.7,29.78,NNW,348,0.0,6.0,86,0.00,,,0.00,meteohub,2013-04-15 10:22:00,
2013-04-15 03:27:00,31.5,27.7,29.78,NNW,348,0.0,6.0,86,0.00,,,0.00,meteohub,2013-04-15 10:27:00,
2013-04-15 03:32:00,31.5,27.7,29.78,NNW,348,1.0,5.0,86,0.00,,,0.00,meteohub,2013-04-15 10:32:00,
2013-04-15 03:42:00,31.3,27.5,29.78,NNW,348,0.0,3.0,86,0.00,,,0.00,meteohub,2013-04-15 10:42:00,
2013-04-15 03:47:00,30.9,27.1,29.79,NNW,348,0.0,3.0,86,0.00,,,0.00,meteohub,2013-04-15 10:47:00,
2013-04-15 03:52:00,30.7,27.7,29.79,NNE,16,1.0,2.0,88,0.00,,,0.00,meteohub,2013-04-15 10:52:00,
2013-04-15 03:57:00,30.7,27.7,29.79,NW,311,3.0,4.0,88,0.00,,,0.00,meteohub,2013-04-15 10:57:00,
2013-04-15 04:02:00,30.9,27.9,29.79,NW,311,1.0,4.0,88,0.00,,,0.00,meteohub,2013-04-15 11:02:00,
2013-04-15 04:12:00,30.7,27.7,29.79,NW,311,0.0,4.0,88,0.00,,,0.00,meteohub,2013-04-15 11:12:00,
2013-04-15 04:22:00,30.6,27.7,29.78,NW,311,0.0,1.0,89,0.00,,,0.00,meteohub,2013-04-15 11:22:00,
2013-04-15 04:32:00,30.7,27.9,29.78,NW,311,0.0,1.0,89,0.00,,,0.00,meteohub,2013-04-15 11:32:00,
2013-04-15 04:37:00,30.6,27.5,29.78,NW,311,0.0,1.0,88,0.00,,,0.00,meteohub,2013-04-15 11:37:00,
2013-04-15 04:42:00,30.4,27.3,29.78,NW,311,0.0,1.0,88,0.00,,,0.00,meteohub,2013-04-15 11:42:00,
2013-04-15 04:47:00,30.0,27.1,29.78,NW,311,0.0,1.0,89,0.00,,,0.00,meteohub,2013-04-15 11:47:00,
2013-04-15 04:52:00,30.0,27.1,29.78,NW,311,1.0,1.0,89,0.00,,,0.00,meteohub,2013-04-15 11:52:00,
2013-04-15 04:57:00,29.8,27.3,29.79,NW,309,2.0,3.0,90,0.00,,,0.00,meteohub,2013-04-15 11:57:00,
2013-04-15 05:02:00,29.8,27.3,29.79,NW,309,2.0,6.0,90,0.00,,,0.00,meteohub,2013-04-15 12:02:00,
2013-04-15 05:07:00,29.7,27.1,29.79,WNW,298,0.0,6.0,90,0.00,,,0.00,meteohub,2013-04-15 12:07:00,
2013-04-15 05:17:00,29.5,27.0,29.81,WNW,298,0.0,5.0,90,0.00,,,0.00,meteohub,2013-04-15 12:17:00,
2013-04-15 05:22:00,29.5,27.0,29.81,WNW,298,0.0,3.0,90,0.00,,,0.00,meteohub,2013-04-15 12:22:00,
2013-04-15 05:32:00,29.5,27.1,29.80,SSE,163,0.0,2.0,91,0.00,,,0.00,meteohub,2013-04-15 12:32:00,
2013-04-15 05:37:00,29.7,27.3,29.81,SSE,162,0.0,3.0,91,0.00,,,0.00,meteohub,2013-04-15 12:37:00,
2013-04-15 05:42:00,29.8,27.5,29.81,SSE,155,0.0,3.0,91,0.00,,,0.00,meteohub,2013-04-15 12:42:00,
2013-04-15 05:47:00,30.0,27.7,29.82,SSE,155,0.0,3.0,91,0.00,,,0.00,meteohub,2013-04-15 12:47:00,
2013-04-15 05:52:00,30.4,27.9,29.83,NW,317,0.0,3.0,90,0.00,,,0.00,meteohub,2013-04-15 12:52:00,
2013-04-15 05:57:00,30.4,27.5,29.83,NW,316,2.0,3.0,89,0.00,,,0.00,meteohub,2013-04-15 12:57:00,
2013-04-15 06:07:00,30.2,27.7,29.83,NW,315,1.0,3.0,90,0.00,,,0.00,meteohub,2013-04-15 13:07:00,
2013-04-15 06:12:00,30.4,27.9,29.83,NW,315,0.0,3.0,90,0.00,,,0.00,meteohub,2013-04-15 13:12:00,
2013-04-15 06:17:00,30.4,27.9,29.83,NW,315,0.0,2.0,90,0.00,,,0.00,meteohub,2013-04-15 13:17:00,
2013-04-15 06:22:00,30.6,28.0,29.83,NW,315,1.0,2.0,90,0.00,,,0.00,meteohub,2013-04-15 13:22:00,
2013-04-15 06:27:00,30.9,28.4,29.83,NW,315,0.0,3.0,90,0.00,,,0.00,meteohub,2013-04-15 13:27:00,
2013-04-15 06:37:00,31.3,28.8,29.82,South,176,2.0,2.0,90,0.00,,,0.00,meteohub,2013-04-15 13:37:00,
2013-04-15 06:42:00,31.3,28.8,29.82,South,176,0.0,5.0,90,0.00,,,0.00,meteohub,2013-04-15 13:42:00,
2013-04-15 06:47:00,31.5,28.9,29.81,South,176,0.0,5.0,90,0.00,,,0.00,meteohub,2013-04-15 13:47:00,
2013-04-15 06:57:00,31.6,28.6,29.82,South,176,0.0,2.0,88,0.00,,,0.00,meteohub,2013-04-15 13:57:00,
2013-04-15 07:07:00,32.2,28.9,29.81,WSW,248,0.0,2.0,88,0.00,,,0.00,meteohub,2013-04-15 14:07:00,
2013-04-15 07:12:00,32.2,28.9,29.81,WSW,248,0.0,2.0,88,0.00,,,0.00,meteohub,2013-04-15 14:12:00,
2013-04-15 07:22:00,32.2,28.8,29.81,NNE,19,3.0,7.0,87,0.00,,,0.00,meteohub,2013-04-15 14:22:00,
2013-04-15 07:32:00,32.7,29.3,29.81,NW,311,2.0,7.0,87,0.00,,,0.00,meteohub,2013-04-15 14:32:00,
2013-04-15 07:37:00,32.9,29.1,29.81,NW,311,0.0,7.0,86,0.00,,,0.00,meteohub,2013-04-15 14:37:00,
2013-04-15 07:42:00,33.3,29.5,29.80,NW,306,3.0,7.0,86,0.00,,,0.00,meteohub,2013-04-15 14:42:00,
2013-04-15 07:47:00,33.4,30.0,29.80,NW,306,0.0,4.0,87,0.00,,,0.00,meteohub,2013-04-15 14:47:00,
2013-04-15 07:52:00,34.0,30.0,29.80,NW,306,2.0,4.0,85,0.00,,,0.00,meteohub,2013-04-15 14:52:00,
2013-04-15 07:57:00,34.5,30.2,29.80,NW,308,0.0,4.0,84,0.00,,,0.00,meteohub,2013-04-15 14:57:00,
2013-04-15 08:02:00,34.9,30.2,29.79,NW,308,0.0,4.0,83,0.00,,,0.00,meteohub,2013-04-15 15:02:00,
2013-04-15 08:07:00,35.2,30.4,29.80,NW,308,1.0,4.0,82,0.00,,,0.00,meteohub,2013-04-15 15:07:00,
2013-04-15 08:17:00,36.1,30.6,29.79,NW,308,0.0,3.0,80,0.00,,,0.00,meteohub,2013-04-15 15:17:00,
2013-04-15 08:22:00,36.9,30.9,29.79,NW,308,2.0,3.0,79,0.00,,,0.00,meteohub,2013-04-15 15:22:00,
2013-04-15 08:32:00,38.1,29.8,29.79,NW,308,1.0,4.0,72,0.00,,,0.00,meteohub,2013-04-15 15:32:00,
2013-04-15 08:42:00,39.7,29.3,29.79,NNE,22,1.0,3.0,66,0.00,,,0.00,meteohub,2013-04-15 15:42:00,
2013-04-15 08:47:00,40.6,30.6,29.78,NNE,22,1.0,3.0,67,0.00,,,0.00,meteohub,2013-04-15 15:47:00,
2013-04-15 08:52:00,42.3,30.2,29.78,SSW,207,1.0,4.0,62,0.00,,,0.00,meteohub,2013-04-15 15:52:00,
2013-04-15 08:57:00,43.7,31.1,29.78,WNW,282,0.0,4.0,61,0.00,,,0.00,meteohub,2013-04-15 15:57:00,
2013-04-15 09:02:00,44.8,30.9,29.78,SSW,199,2.0,6.0,58,0.00,,,0.00,meteohub,2013-04-15 16:02:00,
2013-04-15 09:07:00,45.9,30.2,29.78,WSW,238,7.0,7.0,54,0.00,,,0.00,meteohub,2013-04-15 16:07:00,
2013-04-15 09:17:00,47.5,30.7,29.78,West,273,4.0,13.0,52,0.00,,,0.00,meteohub,2013-04-15 16:17:00,
2013-04-15 09:27:00,48.9,27.3,29.77,West,267,10.0,15.0,43,0.00,,,0.00,meteohub,2013-04-15 16:27:00,
2013-04-15 09:37:00,49.3,32.4,29.78,SW,225,10.0,25.0,52,0.00,,,0.00,meteohub,2013-04-15 16:37:00,
2013-04-15 09:42:00,49.3,27.7,29.78,SW,216,17.0,25.0,43,0.00,,,0.00,meteohub,2013-04-15 16:42:00,
2013-04-15 09:47:00,49.1,32.2,29.77,South,180,6.0,25.0,52,0.00,,,0.00,meteohub,2013-04-15 16:47:00,
2013-04-15 09:52:00,49.5,33.1,29.77,SSE,160,9.0,18.0,53,0.00,,,0.00,meteohub,2013-04-15 16:52:00,
2013-04-15 10:02:00,48.7,31.5,29.77,SSE,153,3.0,25.0,51,0.00,,,0.00,meteohub,2013-04-15 17:02:00,
2013-04-15 10:12:00,50.2,25.5,29.77,SSW,195,10.0,25.0,38,0.00,,,0.00,meteohub,2013-04-15 17:12:00,
2013-04-15 10:17:00,49.6,27.5,29.77,SSW,211,9.0,25.0,42,0.00,,,0.00,meteohub,2013-04-15 17:17:00,
2013-04-15 10:22:00,49.8,27.1,29.78,WSW,240,11.0,25.0,41,0.00,,,0.00,meteohub,2013-04-15 17:22:00,
2013-04-15 10:27:00,50.5,27.7,29.77,WNW,293,8.0,25.0,41,0.00,,,0.00,meteohub,2013-04-15 17:27:00,
2013-04-15 10:32:00,51.1,27.7,29.77,South,190,18.0,24.0,40,0.00,,,0.00,meteohub,2013-04-15 17:32:00,
2013-04-15 10:37:00,51.3,28.4,29.77,SW,232,14.0,24.0,41,0.00,,,0.00,meteohub,2013-04-15 17:37:00,
2013-04-15 10:47:00,51.1,28.2,29.76,West,279,13.0,24.0,41,0.00,,,0.00,meteohub,2013-04-15 17:47:00,
2013-04-15 10:57:00,51.6,27.5,29.76,SW,223,20.0,21.0,39,0.00,,,0.00,meteohub,2013-04-15 17:57:00,
2013-04-15 11:02:00,51.4,27.3,29.76,SW,219,11.0,24.0,39,0.00,,,0.00,meteohub,2013-04-15 18:02:00,
2013-04-15 11:12:00,51.8,26.4,29.76,SSW,197,15.0,25.0,37,0.00,,,0.00,meteohub,2013-04-15 18:12:00,
2013-04-15 11:17:00,51.3,26.6,29.76,SW,228,12.0,25.0,38,0.00,,,0.00,meteohub,2013-04-15 18:17:00,
2013-04-15 11:27:00,51.6,24.1,29.75,WNW,295,9.0,24.0,34,0.00,,,0.00,meteohub,2013-04-15 18:27:00,
2013-04-15 11:32:00,51.4,25.3,29.75,West,259,8.0,21.0,36,0.00,,,0.00,meteohub,2013-04-15 18:32:00,
2013-04-15 11:37:00,52.0,26.6,29.75,SSW,202,7.0,20.0,37,0.00,,,0.00,meteohub,2013-04-15 18:37:00,
2013-04-15 11:42:00,52.0,26.6,29.74,NW,315,9.0,20.0,37,0.00,,,0.00,meteohub,2013-04-15 18:42:00,
2013-04-15 11:47:00,51.6,27.5,29.74,SW,225,7.0,20.0,39,0.00,,,0.00,meteohub,2013-04-15 18:47:00,
2013-04-15 11:52:00,52.3,27.5,29.73,WNW,300,13.0,20.0,38,0.00,,,0.00,meteohub,2013-04-15 18:52:00,
2013-04-15 11:57:00,52.2,26.6,29.74,WNW,292,7.0,20.0,37,0.00,,,0.00,meteohub,2013-04-15 18:57:00,
2013-04-15 12:02:00,50.4,32.9,29.74,NW,311,13.0,16.0,51,0.00,,,0.00,meteohub,2013-04-15 19:02:00,
2013-04-15 12:07:00,49.5,33.1,29.73,North,5,5.0,16.0,53,0.00,,,0.00,meteohub,2013-04-15 19:07:00,
2013-04-15 12:12:00,49.3,33.8,29.73,NW,317,4.0,15.0,55,0.00,,,0.00,meteohub,2013-04-15 19:12:00,
2013-04-15 12:17:00,48.6,31.8,29.73,NW,304,5.0,15.0,52,0.00,,,0.00,meteohub,2013-04-15 19:17:00,
2013-04-15 12:22:00,48.2,32.4,29.73,NW,309,9.0,11.0,54,0.00,,,0.00,meteohub,2013-04-15 19:22:00,
2013-04-15 12:27:00,49.8,24.6,29.73,West,270,9.0,14.0,37,0.00,,,0.00,meteohub,2013-04-15 19:27:00,
2013-04-15 12:32:00,52.0,26.6,29.73,West,268,10.0,17.0,37,0.00,,,0.00,meteohub,2013-04-15 19:32:00,
2013-04-15 12:37:00,52.2,27.3,29.73,WSW,250,11.0,17.0,38,0.00,,,0.00,meteohub,2013-04-15 19:37:00,
2013-04-15 12:57:00,50.7,32.2,29.72,NW,326,15.0,21.0,49,0.00,,,0.00,meteohub,2013-04-15 19:57:00,
2013-04-15 13:02:00,51.8,27.0,29.72,West,269,10.0,21.0,38,0.00,,,0.00,meteohub,2013-04-15 20:02:00,
2013-04-15 13:07:00,49.3,32.0,29.73,NE,35,4.0,21.0,51,0.00,,,0.00,meteohub,2013-04-15 20:07:00,
2013-04-15 13:12:00,48.2,32.4,29.72,NNE,27,6.0,27.0,54,0.00,,,0.00,meteohub,2013-04-15 20:12:00,
2013-04-15 13:17:00,48.6,31.8,29.72,NW,309,8.0,27.0,52,0.00,,,0.00,meteohub,2013-04-15 20:17:00,
2013-04-15 13:22:00,48.9,31.1,29.71,NNE,16,2.0,13.0,50,0.00,,,0.00,meteohub,2013-04-15 20:22:00,
2013-04-15 13:27:00,48.9,31.6,29.72,North,355,7.0,13.0,51,0.00,,,0.00,meteohub,2013-04-15 20:27:00,
2013-04-15 13:32:00,49.3,27.1,29.71,NW,308,6.0,22.0,42,0.00,,,0.00,meteohub,2013-04-15 20:32:00,
2013-04-15 13:37:00,49.6,30.7,29.71,NNW,337,4.0,22.0,48,0.00,,,0.00,meteohub,2013-04-15 20:37:00,
2013-04-15 13:42:00,49.3,30.9,29.71,NW,326,3.0,22.0,49,0.00,,,0.00,meteohub,2013-04-15 20:42:00,
2013-04-15 13:52:00,49.3,29.3,29.72,NW,321,7.0,13.0,46,0.00,,,0.00,meteohub,2013-04-15 20:52:00,
2013-04-15 13:57:00,49.1,30.7,29.71,WNW,300,6.0,12.0,49,0.00,,,0.00,meteohub,2013-04-15 20:57:00,
2013-04-15 14:02:00,48.7,29.5,29.71,North,0,5.0,17.0,47,0.00,,,0.00,meteohub,2013-04-15 21:02:00,
2013-04-15 14:12:00,49.8,29.8,29.70,NNE,13,7.0,17.0,46,0.00,,,0.00,meteohub,2013-04-15 21:12:00,
2013-04-15 14:17:00,50.4,30.4,29.70,NW,319,4.0,12.0,46,0.00,,,0.00,meteohub,2013-04-15 21:17:00,
2013-04-15 14:22:00,50.7,32.2,29.70,WNW,303,6.0,11.0,49,0.00,,,0.00,meteohub,2013-04-15 21:22:00,
2013-04-15 14:27:00,50.7,30.7,29.69,SW,234,10.0,13.0,46,0.00,,,0.00,meteohub,2013-04-15 21:27:00,
2013-04-15 14:32:00,50.5,31.6,29.69,NW,321,5.0,19.0,48,0.00,,,0.00,meteohub,2013-04-15 21:32:00,
2013-04-15 14:37:00,50.7,30.7,29.69,NNW,338,4.0,19.0,46,0.00,,,0.00,meteohub,2013-04-15 21:37:00,
2013-04-15 14:42:00,50.4,33.4,29.69,NNW,341,6.0,19.0,52,0.00,,,0.00,meteohub,2013-04-15 21:42:00,
2013-04-15 14:52:00,48.0,32.2,29.69,WNW,294,9.0,16.0,54,0.00,,,0.00,meteohub,2013-04-15 21:52:00,
2013-04-15 14:57:00,47.1,32.7,29.69,NW,309,6.0,16.0,57,0.00,,,0.00,meteohub,2013-04-15 21:57:00,
2013-04-15 15:02:00,46.8,32.4,29.69,NNE,22,11.0,17.0,57,0.00,,,0.00,meteohub,2013-04-15 22:02:00,
2013-04-15 15:07:00,45.3,31.8,29.70,NW,306,6.0,17.0,59,0.00,,,0.00,meteohub,2013-04-15 22:07:00,
2013-04-15 15:12:00,45.0,31.5,29.70,NW,314,11.0,17.0,59,0.00,,,0.00,meteohub,2013-04-15 22:12:00,
2013-04-15 15:17:00,44.4,31.8,29.70,NNE,16,5.0,17.0,61,0.00,,,0.00,meteohub,2013-04-15 22:17:00,
2013-04-15 15:22:00,44.8,32.5,29.70,NW,318,8.0,15.0,62,0.00,,,0.00,meteohub,2013-04-15 22:22:00,
2013-04-15 15:27:00,45.3,31.8,29.70,WNW,298,9.0,13.0,59,0.00,,,0.00,meteohub,2013-04-15 22:27:00,
2013-04-15 15:37:00,45.0,31.1,29.70,NW,309,5.0,15.0,58,0.00,,,0.00,meteohub,2013-04-15 22:37:00,
2013-04-15 15:42:00,44.4,32.5,29.70,NW,317,9.0,15.0,63,0.00,,,0.00,meteohub,2013-04-15 22:42:00,
2013-04-15 15:47:00,43.3,31.3,29.70,NW,318,5.0,17.0,62,0.00,,,0.00,meteohub,2013-04-15 22:47:00,
2013-04-15 15:52:00,43.5,31.8,29.70,North,5,8.0,17.0,63,0.00,,,0.00,meteohub,2013-04-15 22:52:00,
2013-04-15 15:57:00,44.2,32.9,29.71,NW,317,9.0,16.0,64,0.00,,,0.00,meteohub,2013-04-15 22:57:00,
2013-04-15 16:02:00,44.2,31.6,29.70,NW,304,5.0,14.0,61,0.00,,,0.00,meteohub,2013-04-15 23:02:00,
2013-04-15 16:07:00,44.2,32.4,29.70,NW,312,11.0,14.0,63,0.00,,,0.00,meteohub,2013-04-15 23:07:00,
2013-04-15 16:12:00,44.2,32.0,29.71,NW,309,8.0,14.0,62,0.00,,,0.00,meteohub,2013-04-15 23:12:00,
2013-04-15 16:17:00,43.9,31.6,29.71,NW,321,9.0,13.0,62,0.00,,,0.00,meteohub,2013-04-15 23:17:00,
2013-04-15 16:22:00,43.5,31.3,29.71,NW,306,12.0,17.0,62,0.00,,,0.00,meteohub,2013-04-15 23:22:00,
2013-04-15 16:32:00,41.7,30.4,29.72,NW,312,11.0,18.0,64,0.00,,,0.00,meteohub,2013-04-15 23:32:00,
2013-04-15 16:42:00,42.3,31.6,29.73,NNW,327,9.0,18.0,66,0.00,,,0.00,meteohub,2013-04-15 23:42:00,
2013-04-15 16:47:00,42.4,31.1,29.73,NW,304,9.0,16.0,64,0.00,,,0.00,meteohub,2013-04-15 23:47:00,
2013-04-15 16:52:00,42.3,31.3,29.73,NW,313,13.0,16.0,65,0.00,,,0.00,meteohub,2013-04-15 23:52:00,
2013-04-15 16:57:00,41.5,30.7,29.73,NNW,331,8.0,15.0,65,0.00,,,0.00,meteohub,2013-04-15 23:57:00,
2013-04-15 17:02:00,41.7,30.7,29.73,North,0,4.0,15.0,65,0.00,,,0.00,meteohub,2013-04-16 00:02:00,
2013-04-15 17:07:00,41.7,30.4,29.73,NW,313,7.0,17.0,64,0.00,,,0.00,meteohub,2013-04-16 00:07:00,
2013-04-15 17:12:00,41.0,30.6,29.74,WNW,290,11.0,17.0,66,0.00,,,0.00,meteohub,2013-04-16 00:12:00,
2013-04-15 17:17:00,40.5,30.7,29.74,NW,309,11.0,18.0,68,0.00,,,0.00,meteohub,2013-04-16 00:17:00,
2013-04-15 17:22:00,39.9,30.2,29.74,NW,316,7.0,18.0,68,0.00,,,0.00,meteohub,2013-04-16 00:22:00,
2013-04-15 17:27:00,39.9,30.6,29.75,WNW,303,6.0,18.0,69,0.00,,,0.00,meteohub,2013-04-16 00:27:00,
2013-04-15 17:32:00,39.7,29.3,29.75,NNE,24,8.0,14.0,66,0.00,,,0.00,meteohub,2013-04-16 00:32:00,
2013-04-15 17:37:00,39.7,29.7,29.75,North,5,5.0,15.0,67,0.00,,,0.00,meteohub,2013-04-16 00:37:00,
2013-04-15 17:42:00,39.6,29.1,29.76,NNE,26,4.0,15.0,66,0.00,,,0.00,meteohub,2013-04-16 00:42:00,
2013-04-15 17:47:00,39.0,28.6,29.76,NE,46,9.0,15.0,66,0.00,,,0.00,meteohub,2013-04-16 00:47:00,
2013-04-15 17:52:00,38.8,28.8,29.77,NNE,25,4.0,11.0,67,0.00,,,0.00,meteohub,2013-04-16 00:52:00,
2013-04-15 17:57:00,38.7,28.6,29.77,NW,316,6.0,10.0,67,0.00,,,0.00,meteohub,2013-04-16 00:57:00,
2013-04-15 18:02:00,38.5,28.4,29.77,NW,314,7.0,11.0,67,0.00,,,0.00,meteohub,2013-04-16 01:02:00,
2013-04-15 18:07:00,38.5,28.8,29.77,NE,47,4.0,11.0,68,0.00,,,0.00,meteohub,2013-04-16 01:07:00,
2013-04-15 18:12:00,38.1,28.2,29.78,NW,322,8.0,11.0,67,0.00,,,0.00,meteohub,2013-04-16 01:12:00,
2013-04-15 18:17:00,37.9,28.4,29.77,NW,312,10.0,12.0,68,0.00,,,0.00,meteohub,2013-04-16 01:17:00,
2013-04-15 18:22:00,37.8,28.6,29.78,NW,304,7.0,13.0,69,0.00,,,0.00,meteohub,2013-04-16 01:22:00,
2013-04-15 18:27:00,37.6,28.4,29.77,NNW,327,4.0,13.0,69,0.00,,,0.00,meteohub,2013-04-16 01:27:00,
2013-04-15 18:37:00,37.2,28.4,29.78,North,355,3.0,12.0,70,0.00,,,0.00,meteohub,2013-04-16 01:37:00,
2013-04-15 18:42:00,37.0,28.2,29.78,NE,40,4.0,10.0,70,0.00,,,0.00,meteohub,2013-04-16 01:42:00,
2013-04-15 18:47:00,36.9,28.4,29.79,WNW,298,3.0,9.0,71,0.00,,,0.00,meteohub,2013-04-16 01:47:00,
2013-04-15 18:52:00,36.1,28.4,29.79,WNW,282,3.0,8.0,73,0.00,,,0.00,meteohub,2013-04-16 01:52:00,
2013-04-15 18:57:00,35.4,28.0,29.79,NW,311,2.0,6.0,74,0.00,,,0.00,meteohub,2013-04-16 01:57:00,
2013-04-15 19:02:00,35.2,28.0,29.79,NW,313,1.0,6.0,75,0.00,,,0.00,meteohub,2013-04-16 02:02:00,
2013-04-15 19:07:00,34.5,27.7,29.79,NW,313,2.0,4.0,76,0.00,,,0.00,meteohub,2013-04-16 02:07:00,
2013-04-15 19:12:00,33.6,27.5,29.79,NW,313,2.0,4.0,78,0.00,,,0.00,meteohub,2013-04-16 02:12:00,
2013-04-15 19:22:00,33.3,28.0,29.79,NW,313,0.0,3.0,81,0.00,,,0.00,meteohub,2013-04-16 02:22:00,
2013-04-15 19:27:00,33.3,28.0,29.79,NW,313,0.0,3.0,81,0.00,,,0.00,meteohub,2013-04-16 02:27:00,
2013-04-15 19:32:00,33.4,28.2,29.79,ENE,78,1.0,1.0,81,0.00,,,0.00,meteohub,2013-04-16 02:32:00,
2013-04-15 19:37:00,33.4,27.9,29.79,ENE,78,0.0,3.0,80,0.00,,,0.00,meteohub,2013-04-16 02:37:00,
2013-04-15 19:42:00,33.3,27.7,29.79,ENE,78,1.0,3.0,80,0.00,,,0.00,meteohub,2013-04-16 02:42:00,
2013-04-15 19:47:00,33.1,27.9,29.79,ENE,78,0.0,3.0,81,0.00,,,0.00,meteohub,2013-04-16 02:47:00,
2013-04-15 19:52:00,32.7,27.9,29.80,ENE,78,0.0,2.0,82,0.00,,,0.00,meteohub,2013-04-16 02:52:00,
2013-04-15 19:57:00,32.5,27.7,29.79,ENE,78,0.0,2.0,82,0.00,,,0.00,meteohub,2013-04-16 02:57:00,
2013-04-15 20:02:00,32.2,27.3,29.79,East,97,0.0,1.0,82,0.00,,,0.00,meteohub,2013-04-16 03:02:00,
2013-04-15 20:07:00,31.3,26.8,29.80,East,97,0.0,2.0,83,0.00,,,0.00,meteohub,2013-04-16 03:07:00,
2013-04-15 20:12:00,30.9,27.1,29.79,ESE,119,0.0,2.0,86,0.00,,,0.00,meteohub,2013-04-16 03:12:00,
2013-04-15 20:17:00,30.9,27.5,29.79,ESE,119,0.0,2.0,87,0.00,,,0.00,meteohub,2013-04-16 03:17:00,
2013-04-15 20:22:00,30.9,27.5,29.79,ESE,119,0.0,2.0,87,0.00,,,0.00,meteohub,2013-04-16 03:22:00,
2013-04-15 20:27:00,30.6,26.6,29.80,SSE,163,0.0,4.0,85,0.00,,,0.00,meteohub,2013-04-16 03:27:00,
2013-04-15 20:32:00,30.2,26.6,29.80,SSE,163,0.0,4.0,86,0.00,,,0.00,meteohub,2013-04-16 03:32:00,
2013-04-15 20:37:00,30.4,27.3,29.80,SSE,163,0.0,4.0,88,0.00,,,0.00,meteohub,2013-04-16 03:37:00,
2013-04-15 20:42:00,30.6,27.5,29.80,SSE,163,0.0,2.0,88,0.00,,,0.00,meteohub,2013-04-16 03:42:00,
2013-04-15 20:47:00,30.4,26.8,29.80,SSE,163,0.0,1.0,86,0.00,,,0.00,meteohub,2013-04-16 03:47:00,
2013-04-15 20:52:00,30.0,26.6,29.80,SSE,163,0.0,1.0,87,0.00,,,0.00,meteohub,2013-04-16 03:52:00,
2013-04-15 20:57:00,30.0,27.0,29.80,SSE,163,0.0,1.0,88,0.00,,,0.00,meteohub,2013-04-16 03:57:00,
2013-04-15 21:02:00,29.8,26.8,29.80,SSE,163,0.0,1.0,88,0.00,,,0.00,meteohub,2013-04-16 04:02:00,
2013-04-15 21:07:00,29.7,26.8,29.80,SSE,163,1.0,0.0,89,0.00,,,0.00,meteohub,2013-04-16 04:07:00,
2013-04-15 21:12:00,29.7,26.8,29.81,SSE,163,0.0,2.0,89,0.00,,,0.00,meteohub,2013-04-16 04:12:00,
2013-04-15 21:17:00,29.5,27.0,29.81,SSE,163,0.0,2.0,90,0.00,,,0.00,meteohub,2013-04-16 04:17:00,
2013-04-15 21:22:00,29.7,27.3,29.80,SSE,163,2.0,2.0,91,0.00,,,0.00,meteohub,2013-04-16 04:22:00,
2013-04-15 21:27:00,29.8,27.3,29.81,SSE,163,0.0,2.0,90,0.00,,,0.00,meteohub,2013-04-16 04:27:00,
2013-04-15 21:32:00,29.7,26.8,29.81,SSE,163,0.0,2.0,89,0.00,,,0.00,meteohub,2013-04-16 04:32:00,
2013-04-15 21:37:00,29.7,27.1,29.81,SSE,163,0.0,2.0,90,0.00,,,0.00,meteohub,2013-04-16 04:37:00,
2013-04-15 21:42:00,29.7,27.1,29.80,SSE,163,0.0,1.0,90,0.00,,,0.00,meteohub,2013-04-16 04:42:00,
2013-04-15 21:47:00,29.5,26.6,29.80,SSE,163,2.0,2.0,89,0.00,,,0.00,meteohub,2013-04-16 04:47:00,
2013-04-15 21:52:00,29.1,26.2,29.80,SSE,163,0.0,3.0,89,0.00,,,0.00,meteohub,2013-04-16 04:52:00,
2013-04-15 21:57:00,28.9,26.4,29.80,SSE,163,0.0,3.0,90,0.00,,,0.00,meteohub,2013-04-16 04:57:00,
2013-04-15 22:02:00,28.8,25.9,29.80,SSE,163,0.0,3.0,89,0.00,,,0.00,meteohub,2013-04-16 05:02:00,
2013-04-15 22:07:00,28.2,25.7,29.80,SSE,163,3.0,3.0,90,0.00,,,0.00,meteohub,2013-04-16 05:07:00,
2013-04-15 22:12:00,28.2,25.9,29.80,SSE,163,2.0,3.0,91,0.00,,,0.00,meteohub,2013-04-16 05:12:00,
2013-04-15 22:17:00,28.2,25.9,29.80,SSE,163,0.0,3.0,91,0.00,,,0.00,meteohub,2013-04-16 05:17:00,
2013-04-15 22:22:00,28.6,26.2,29.79,SSE,163,2.0,3.0,91,0.00,,,0.00,meteohub,2013-04-16 05:22:00,
2013-04-15 22:27:00,28.6,26.2,29.80,SSE,163,0.0,3.0,91,0.00,,,0.00,meteohub,2013-04-16 05:27:00,
2013-04-15 22:32:00,28.8,26.4,29.79,SSE,163,0.0,3.0,91,0.00,,,0.00,meteohub,2013-04-16 05:32:00,
2013-04-15 22:37:00,28.8,26.2,29.79,SSE,163,0.0,3.0,90,0.00,,,0.00,meteohub,2013-04-16 05:37:00,
2013-04-15 22:42:00,28.2,25.3,29.79,SSE,163,0.0,1.0,89,0.00,,,0.00,meteohub,2013-04-16 05:42:00,
2013-04-15 22:47:00,28.0,25.2,29.79,SSE,163,0.0,1.0,89,0.00,,,0.00,meteohub,2013-04-16 05:47:00,
2013-04-15 22:52:00,27.9,25.0,29.79,SSE,163,0.0,1.0,89,0.00,,,0.00,meteohub,2013-04-16 05:52:00,
2013-04-15 22:57:00,27.9,25.3,29.79,SSE,163,0.0,0.0,90,0.00,,,0.00,meteohub,2013-04-16 05:57:00,
2013-04-15 23:02:00,27.7,25.3,29.79,SSE,163,0.0,0.0,91,0.00,,,0.00,meteohub,2013-04-16 06:02:00,
2013-04-15 23:07:00,27.7,25.3,29.79,SSE,163,0.0,0.0,91,0.00,,,0.00,meteohub,2013-04-16 06:07:00,
2013-04-15 23:12:00,27.7,25.3,29.79,SSE,163,0.0,0.0,91,0.00,,,0.00,meteohub,2013-04-16 06:12:00,
2013-04-15 23:17:00,27.7,25.7,29.79,SSE,163,0.0,0.0,92,0.00,,,0.00,meteohub,2013-04-16 06:17:00,
2013-04-15 23:22:00,27.5,25.2,29.79,SSE,163,0.0,1.0,91,0.00,,,0.00,meteohub,2013-04-16 06:22:00,
2013-04-15 23:27:00,27.3,25.0,29.79,SSE,163,0.0,1.0,91,0.00,,,0.00,meteohub,2013-04-16 06:27:00,
2013-04-15 23:32:00,27.1,24.8,29.79,SSE,163,0.0,1.0,91,0.00,,,0.00,meteohub,2013-04-16 06:32:00,
2013-04-15 23:42:00,27.0,25.0,29.80,SSE,163,0.0,2.0,92,0.00,,,0.00,meteohub,2013-04-16 06:42:00,
2013-04-15 23:47:00,26.8,24.8,29.79,SSE,163,0.0,2.0,92,0.00,,,0.00,meteohub,2013-04-16 06:47:00,
2013-04-15 23:52:00,27.0,25.2,29.80,SSE,163,0.0,2.0,93,0.00,,,0.00,meteohub,2013-04-16 06:52:00,
2013-04-15 23:57:00,27.0,25.2,29.80,SSE,163,0.0,2.0,93,0.00,,,0.00,meteohub,2013-04-16 06:57:00,